Terminal Aerodrome Forecast
Issued by NWS Wilmington, OH

Current Version | Previous Version | Text Only | Print | Product List | Glossary Off
Versions: 1 2 3 4 5 6 7 8 9 10 11 12 13 14 15 16 17 18

000
FTUS41 KILN 261700
TAFCMH
TAF
KCMH 261735Z 2618/2718 19012G20KT P6SM SCT045
     FM262000 19014G22KT P6SM VCTS BKN050CB
      TEMPO 2621/2624 3SM TSRA OVC030CB
     FM270200 20012KT P6SM SCT040 BKN250
     FM270900 20007KT P6SM BKN010
     FM271500 21010KT P6SM SCT030=

USA.gov is the U.S. government's official web portal to all federal, state and local government web resources and services.